COSMOS 2397

Satellite information

Favourite Embed

Satellite Type and Status

PAYLOADIN ORBIT

Key statistics

Satellite COSMOS 2397 at a glance.

Uptime

8231

Days in orbit

Revolutions

≈ 1.0

Per day

Orbit

OTHER

Other

Inclination

12.4

Latest

Satellite identification and parameters

Extended collection of information and parameters for COSMOS 2397.

Object identification

Identified? True

Debris? False

Object name: COSMOS 2397

International designator: 2003-015A

Object number (NORAD): 27775

Object ID (CCSDS): 27775

Country: COMMONWEALTH OF INDEPENDENT STATES (CIS)

Current information (Y/N): Y

RCS size: LARGE

Orbital parameters

Period: 1433.51 minutes

Inclination: 12.4496 deg

SMA: 42114.084 km

Apoapsis: 35903.15 km

Periapsis: 35568.747 km

RAAN: 21.6814 deg

Eccentricy: 0.0039702

Argument of periapsis: 3.565 deg

Mean anomaly: 4.6087 deg

Mean motion: 1.00452726 rev/day

Mean motion (dot): -0.00000126 rev/day2

B* drag term: 0.0 1/REarth

Two-line elements (TLE)

Creation date: Nov. 5, 2025, 12:06 a.m.

Reference frame: TEME

Reference center: EARTH

Epoch: Nov. 4, 2025, 12:43 p.m. UTC

TLE line 0: 0 COSMOS 2397

TLE line 1: 1 27775U 03015A 25308.52989353 -.00000126 00000-0 00000+0 0 9998

TLE line 2: 2 27775 12.4496 21.6814 0039702 3.5650 4.6087 1.00452726 82662

Live tracking on map

Real-time ground track for satellite COSMOS 2397.

In-orbit conjunctions

There are no conjunctions computed for COSMOS 2397, at the moment. Check back to stay up to date, as we update our databases every day.

Go to all conjunctions

Associated space launch

Second generation early warning satellite

COSMOS 2397 was lifted into orbit during the mission ‘Proton | US-KMO 6’, on board a Proton space rocket.

The launch took place on April 24, 2003, 4:23 a.m. from 81/24 (81P).

For more information about the launch, click the button.

Launch to space Proton | US-KMO 6
Proton | US-KMO 6

Agency: N/A

Status: Launch Successful

Launch date: April 24, 2003, 4:23 a.m. UTC

Rocket: Proton

Launch pad: 81/24 (81P)

Location: Baikonur Cosmodrome, Republic of Kazakhstan

...

Latest news about this satellite

There are no fresh news available about this satellite. Check back as we update our databases every day.


Newsletter sign-up

Weekly statistics, charts and insights to help you stay on top of the space industry.